Weather in Kalach-Kurtlak

Russia / Rostov Oblast     48°59′52″N   42°25′33″E
temp.,
°C
wind,
m/s
gust,
m/s
humid.,
%
clouds,
%
prec.,
mm/h
press.,
hPa
HPBL,
m
26 february, fri
fri2600:00−3wsw71394100 0.6 1021395
03:00−1w51197100 0.7 1020351
06:00−1wsw4798100 0.1 1020205
09:00+1w3799100 0.1 1019190
12:00+2wsw47100100 0.2 1019167
15:00+3wsw41099100 0.2 1018245
18:00+3wsw511100100 0.0 1016223
21:00+4w61398100 0.0 1015369
27 february, sat
sat2700:00+3w61397100 0.2 1014376
03:00+3w61496100 0.3 1013415
06:00+2w51196100 0.0 1011426
09:00+2w61194100 0.0 1011597
12:00+3w61189100 0.0 1011773
15:00+2w61188100 0.0 1010672
18:00+2w51190100 0.0 1010425
21:00+1wnw51192100 0.1 1011470
28 february, sun
sun2800:00+1wnw598897 0.0 1012535
03:000wnw599399 0.1 1013443
06:000wnw499192 0.0 1013383
09:00−1n358696 0.1 1014359
12:00+1nw567285 0.0 1015795
15:00+1nw566772 0.0 1015809
18:00−1nnw367778 0.0 1016281
21:00−2nnw357587 0.0 1018708
1 march, mon
mon100:00−3n347598 0.0 1019516
03:00−3nne227893 0.0 1021350
06:00−4n237986 0.0 1022344
09:00−4n237581 0.0 1024536
12:00−2nnw3368100 0.0 1025743
15:00−1nnw456599 0.0 1026850
18:00−2nnw256993 0.0 1027543
21:00−3nnw127254 0.0 102864
2 march, tue
tue200:00−3w24750 0.0 1028152
03:00−3w37811 0.0 1027249
06:00−3wsw5108195 0.0 1025464
09:00−1wsw7127397 0.0 1023779
12:000w81286100 0.1 1021822
15:00+2w81378100 0.3 1019796
18:00+1w81496100 0.1 1016669
21:00+1nw81397100 0.1 1016759